Location: Newark
(16.3678°N, 77.8722°E)
Time: 20:02:18
(UTC+00:00)

S-56A Canister/Altair - Pass Details

Date: 18 December 2019
Orbit: 634 x 2498 km, 38.9° (Epoch: 21 January)

Event Time Altitude Azimuth Distance (km) Brightness Sun altitude
Rises 01:33:17 0° 249° (WSW) 4,277 10.9 4.2°
Reaches altitude 10° 01:35:52 10° 253° (WSW) 3,527 10.5 4.8°
Maximum altitude 01:45:06 57° 330° (NNW) 2,148 9.6 6.7°
Drops below altitude 10° 01:58:29 10° 46° (NE) 4,957 11.9 9.6°
Sets 02:02:52 0° 50° (NE) 6,094 12.4 10.5°
